TimeEDT,TemperatureF,Dew PointF,Humidity,Sea Level PressureIn,VisibilityMPH,Wind Direction,Wind SpeedMPH,Gust SpeedMPH,PrecipitationIn,Events,Conditions,WindDirDegrees,DateUTC
1:53 AM,64.9,57.0,75,30.09,10.0,ENE,9.2,-,N/A,,Overcast,70,2013-08-16 05:53:00
2:53 AM,64.9,57.9,78,30.07,10.0,East,10.4,-,N/A,,Overcast,90,2013-08-16 06:53:00
3:53 AM,64.9,57.0,75,30.06,10.0,East,9.2,-,N/A,,Overcast,80,2013-08-16 07:53:00
4:53 AM,64.0,57.0,78,30.06,10.0,ENE,9.2,-,N/A,,Overcast,70,2013-08-16 08:53:00
5:53 AM,64.0,57.0,78,30.06,10.0,ENE,6.9,-,0.00,,Overcast,70,2013-08-16 09:53:00
6:44 AM,62.6,59.0,88,30.11,6.0,East,11.5,17.3,0.02,Rain,Rain,90,2013-08-16 10:44:00
6:51 AM,62.6,59.0,88,30.11,2.5,East,11.5,17.3,0.05,Rain,Heavy Rain,100,2013-08-16 10:51:00
6:53 AM,61.0,59.0,93,30.09,2.5,East,10.4,17.3,0.06,Rain,Heavy Rain,100,2013-08-16 10:53:00
7:13 AM,60.8,59.0,94,30.12,3.0,East,12.7,-,0.08,Rain,Rain,80,2013-08-16 11:13:00
7:53 AM,60.1,57.9,93,30.10,3.0,East,10.4,19.6,0.13,Rain,Light Rain,80,2013-08-16 11:53:00
8:02 AM,60.8,57.2,88,30.13,4.0,East,11.5,-,0.00,Rain,Light Rain,80,2013-08-16 12:02:00
8:36 AM,60.8,59.0,94,30.14,5.0,ENE,9.2,-,0.02,Rain,Light Rain,70,2013-08-16 12:36:00
8:53 AM,61.0,59.0,93,30.11,6.0,East,10.4,-,0.02,Rain,Light Rain,80,2013-08-16 12:53:00
9:53 AM,61.0,59.0,93,30.12,7.0,ENE,10.4,-,0.00,,Overcast,70,2013-08-16 13:53:00
10:15 AM,62.6,59.0,88,30.15,2.5,ENE,13.8,19.6,0.01,Rain,Light Rain,70,2013-08-16 14:15:00
10:17 AM,62.6,59.0,88,30.15,3.0,ENE,11.5,19.6,0.01,Rain,Light Rain,70,2013-08-16 14:17:00
10:32 AM,60.8,57.2,88,30.15,5.0,East,15.0,23.0,0.02,Rain,Light Rain,80,2013-08-16 14:32:00
10:53 AM,62.1,59.0,90,30.13,8.0,East,10.4,18.4,0.02,Rain,Light Rain,80,2013-08-16 14:53:00
11:01 AM,62.6,59.0,88,30.16,9.0,East,10.4,19.6,0.00,Rain,Light Rain,80,2013-08-16 15:01:00
11:25 AM,62.6,57.2,82,30.16,10.0,East,12.7,-,0.00,,Overcast,80,2013-08-16 15:25:00
11:53 AM,63.0,57.9,84,30.14,10.0,East,10.4,-,0.00,,Overcast,80,2013-08-16 15:53:00
11:59 AM,62.6,57.2,82,30.16,10.0,ENE,11.5,-,N/A,,Overcast,70,2013-08-16 15:59:00
12:07 PM,62.6,57.2,82,30.16,10.0,ENE,6.9,17.3,N/A,,Overcast,70,2013-08-16 16:07:00
12:14 PM,62.6,59.0,88,30.16,10.0,ENE,9.2,-,N/A,,Overcast,60,2013-08-16 16:14:00
12:37 PM,62.6,60.8,94,30.16,10.0,East,8.1,-,0.00,Rain,Light Rain,80,2013-08-16 16:37:00
12:53 PM,64.0,59.0,84,30.13,10.0,ENE,13.8,23.0,0.00,,Overcast,70,2013-08-16 16:53:00
1:01 PM,64.4,59.0,83,30.15,10.0,ENE,12.7,23.0,N/A,,Overcast,60,2013-08-16 17:01:00
1:23 PM,66.2,60.8,83,30.15,10.0,ENE,11.5,-,N/A,,Overcast,70,2013-08-16 17:23:00
1:43 PM,66.2,59.0,78,30.14,10.0,ENE,15.0,21.9,N/A,,Overcast,70,2013-08-16 17:43:00
1:53 PM,66.9,59.0,76,30.11,10.0,East,16.1,21.9,N/A,,Overcast,80,2013-08-16 17:53:00
2:00 PM,66.2,59.0,78,30.14,10.0,East,12.7,21.9,N/A,,Overcast,80,2013-08-16 18:00:00
2:53 PM,66.0,59.0,78,30.11,10.0,ENE,12.7,-,N/A,,Overcast,70,2013-08-16 18:53:00
3:53 PM,66.9,59.0,76,30.09,10.0,East,9.2,-,N/A,,Overcast,90,2013-08-16 19:53:00
4:53 PM,66.9,60.1,79,30.08,10.0,ENE,8.1,-,N/A,,Overcast,70,2013-08-16 20:53:00
5:53 PM,68.0,61.0,78,30.07,10.0,ENE,10.4,-,N/A,,Overcast,70,2013-08-16 21:53:00
6:53 PM,68.0,61.0,78,30.08,10.0,East,6.9,-,N/A,,Overcast,80,2013-08-16 22:53:00
7:08 PM,68.0,60.8,78,30.11,10.0,East,6.9,-,N/A,,Overcast,90,2013-08-16 23:08:00
7:53 PM,66.9,60.1,79,30.10,10.0,East,5.8,-,N/A,,Overcast,100,2013-08-16 23:53:00
8:53 PM,66.0,60.1,81,30.12,10.0,East,5.8,-,N/A,,Overcast,100,2013-08-17 00:53:00
9:53 PM,66.0,61.0,84,30.14,10.0,ESE,4.6,-,N/A,,Overcast,110,2013-08-17 01:53:00
10:24 PM,64.4,60.8,88,30.17,10.0,ESE,5.8,-,N/A,,Overcast,110,2013-08-17 02:24:00
10:53 PM,64.9,61.0,87,30.14,10.0,ESE,6.9,-,N/A,,Overcast,110,2013-08-17 02:53:00
11:53 PM,64.0,60.1,87,30.14,10.0,East,5.8,-,N/A,,Overcast,90,2013-08-17 03:53:00